Year,Month,Day,Hour,Minute,Value (Times are PST for temperature in C)
2016,05,23,00,00,12.90
2016,05,23,00,01,12.90
2016,05,23,00,02,12.80
2016,05,23,00,03,12.80
2016,05,23,00,04,12.80
2016,05,23,00,05,12.80
2016,05,23,00,06,12.90
2016,05,23,00,07,12.90
2016,05,23,00,08,12.90
2016,05,23,00,09,12.90
2016,05,23,00,10,12.80
2016,05,23,00,11,12.80
2016,05,23,00,12,12.80
2016,05,23,00,13,12.80
2016,05,23,00,14,12.80
2016,05,23,00,15,12.80
2016,05,23,00,16,12.80
2016,05,23,00,17,12.80
2016,05,23,00,18,12.80
2016,05,23,00,19,12.80
2016,05,23,00,20,12.80
2016,05,23,00,21,12.90
2016,05,23,00,22,12.90
2016,05,23,00,23,12.90
2016,05,23,00,24,12.90
2016,05,23,00,25,12.90
2016,05,23,00,26,12.90
2016,05,23,00,27,12.90
2016,05,23,00,28,12.90
2016,05,23,00,29,12.90
2016,05,23,00,30,12.80
2016,05,23,00,31,12.80
2016,05,23,00,32,12.80
2016,05,23,00,33,12.80
2016,05,23,00,34,12.80
2016,05,23,00,35,12.80
2016,05,23,00,36,12.80
2016,05,23,00,37,12.80
2016,05,23,00,38,12.80
2016,05,23,00,39,12.80
2016,05,23,00,40,12.80
2016,05,23,00,41,12.80
2016,05,23,00,42,12.80
2016,05,23,00,43,12.80
2016,05,23,00,44,12.80
2016,05,23,00,45,12.80
2016,05,23,00,46,12.80
2016,05,23,00,47,12.80
2016,05,23,00,48,12.80
2016,05,23,00,49,12.80
2016,05,23,00,50,12.80
2016,05,23,00,51,12.70
2016,05,23,00,52,12.70
2016,05,23,00,53,12.70
2016,05,23,00,54,12.70
2016,05,23,00,55,12.70
2016,05,23,00,56,12.70
2016,05,23,00,57,12.70
2016,05,23,00,58,12.70
2016,05,23,00,59,12.70
2016,05,23,01,00,12.70
2016,05,23,01,01,12.60
2016,05,23,01,02,12.60
2016,05,23,01,03,12.60
2016,05,23,01,04,12.60
2016,05,23,01,05,12.60
2016,05,23,01,06,12.60
2016,05,23,01,07,12.60
2016,05,23,01,08,12.60
2016,05,23,01,09,12.60
2016,05,23,01,10,12.60
2016,05,23,01,11,12.60
2016,05,23,01,12,12.50
2016,05,23,01,13,12.50
2016,05,23,01,14,12.50
2016,05,23,01,15,12.50
2016,05,23,01,16,12.50
2016,05,23,01,17,12.40
2016,05,23,01,18,12.40
2016,05,23,01,19,12.40
2016,05,23,01,20,12.40
2016,05,23,01,21,12.40
2016,05,23,01,22,12.40
2016,05,23,01,23,12.40
2016,05,23,01,24,12.40
2016,05,23,01,25,12.40
2016,05,23,01,26,12.40
2016,05,23,01,27,12.40
2016,05,23,01,28,12.40
2016,05,23,01,29,12.40
2016,05,23,01,30,12.40
2016,05,23,01,31,12.40
2016,05,23,01,32,12.40
2016,05,23,01,33,12.40
2016,05,23,01,34,12.40
2016,05,23,01,35,12.40
2016,05,23,01,36,12.40
2016,05,23,01,37,12.40
2016,05,23,01,38,12.40
2016,05,23,01,39,12.30
2016,05,23,01,40,12.30
2016,05,23,01,41,12.30
2016,05,23,01,42,12.30
2016,05,23,01,43,12.30
2016,05,23,01,44,12.30
2016,05,23,01,45,12.30
2016,05,23,01,46,12.30
2016,05,23,01,47,12.30
2016,05,23,01,48,12.30
2016,05,23,01,49,12.30
2016,05,23,01,50,12.30
2016,05,23,01,51,12.30
2016,05,23,01,52,12.30
2016,05,23,01,53,12.30
2016,05,23,01,54,12.20
2016,05,23,01,55,12.20
2016,05,23,01,56,12.20
2016,05,23,01,57,12.20
2016,05,23,01,58,12.20
2016,05,23,01,59,12.20
2016,05,23,02,00,12.20
2016,05,23,02,01,12.20
2016,05,23,02,02,12.20
2016,05,23,02,03,12.20
2016,05,23,02,04,12.20
2016,05,23,02,05,12.20
2016,05,23,02,06,12.20
2016,05,23,02,07,12.20
2016,05,23,02,08,12.20
2016,05,23,02,09,12.20
2016,05,23,02,10,12.20
2016,05,23,02,11,12.20
2016,05,23,02,12,12.20
2016,05,23,02,13,12.20
2016,05,23,02,14,12.20
2016,05,23,02,15,12.20
2016,05,23,02,16,12.20
2016,05,23,02,17,12.20
2016,05,23,02,18,12.20
2016,05,23,02,19,12.10
2016,05,23,02,20,12.10
2016,05,23,02,21,12.10
2016,05,23,02,22,12.10
2016,05,23,02,23,12.00
2016,05,23,02,24,12.00
2016,05,23,02,25,12.00
2016,05,23,02,26,11.90
2016,05,23,02,27,11.90
2016,05,23,02,28,11.90
2016,05,23,02,29,11.90
2016,05,23,02,30,11.90
2016,05,23,02,31,11.90
2016,05,23,02,32,11.90
2016,05,23,02,33,11.90
2016,05,23,02,34,11.90
2016,05,23,02,35,12.00
2016,05,23,02,36,12.00
2016,05,23,02,37,12.10
2016,05,23,02,38,12.10
2016,05,23,02,39,12.10
2016,05,23,02,40,12.20
2016,05,23,02,41,12.20
2016,05,23,02,42,12.20
2016,05,23,02,43,12.10
2016,05,23,02,44,12.10
2016,05,23,02,45,12.10
2016,05,23,02,46,12.10
2016,05,23,02,47,12.10
2016,05,23,02,48,12.10
2016,05,23,02,49,12.00
2016,05,23,02,50,12.00
2016,05,23,02,51,11.90
2016,05,23,02,52,11.90
2016,05,23,02,53,11.90
2016,05,23,02,54,11.90
2016,05,23,02,55,11.90
2016,05,23,02,56,11.90
2016,05,23,02,57,11.90
2016,05,23,02,58,12.00
2016,05,23,02,59,12.00
2016,05,23,03,00,12.00
2016,05,23,03,01,12.10
2016,05,23,03,02,12.10
2016,05,23,03,03,12.10
2016,05,23,03,04,12.10
2016,05,23,03,05,12.20
2016,05,23,03,06,12.20
2016,05,23,03,07,12.20
2016,05,23,03,08,12.20
2016,05,23,03,09,12.20
2016,05,23,03,10,12.20
2016,05,23,03,11,12.20
2016,05,23,03,12,12.20
2016,05,23,03,13,12.20
2016,05,23,03,14,12.20
2016,05,23,03,15,12.10
2016,05,23,03,16,12.10
2016,05,23,03,17,12.10
2016,05,23,03,18,12.10
2016,05,23,03,19,12.10
2016,05,23,03,20,12.10
2016,05,23,03,21,12.10
2016,05,23,03,22,12.10
2016,05,23,03,23,12.10
2016,05,23,03,24,12.10
2016,05,23,03,25,12.10
2016,05,23,03,26,12.10
2016,05,23,03,27,12.10
2016,05,23,03,28,12.10
2016,05,23,03,29,12.10
2016,05,23,03,30,12.10
2016,05,23,03,31,12.10
2016,05,23,03,32,12.10
2016,05,23,03,33,12.10
2016,05,23,03,34,12.10
2016,05,23,03,35,12.00
2016,05,23,03,36,12.00
2016,05,23,03,37,12.00
2016,05,23,03,38,12.00
2016,05,23,03,39,11.90
2016,05,23,03,40,11.90
2016,05,23,03,41,11.90
2016,05,23,03,42,11.90
2016,05,23,03,43,11.90
2016,05,23,03,44,11.90
2016,05,23,03,45,12.00
2016,05,23,03,46,12.00
2016,05,23,03,47,12.10
2016,05,23,03,48,12.10
2016,05,23,03,49,12.10
2016,05,23,03,50,12.10
2016,05,23,03,51,12.00
2016,05,23,03,52,12.00
2016,05,23,03,53,12.00
2016,05,23,03,54,11.90
2016,05,23,03,55,11.90
2016,05,23,03,56,11.90
2016,05,23,03,57,11.90
2016,05,23,03,58,11.90
2016,05,23,03,59,11.90
2016,05,23,04,00,11.90
2016,05,23,04,01,11.90
2016,05,23,04,02,11.90
2016,05,23,04,03,11.90
2016,05,23,04,04,11.80
2016,05,23,04,05,11.80
2016,05,23,04,06,11.80
2016,05,23,04,07,11.80
2016,05,23,04,08,11.80
2016,05,23,04,09,11.80
2016,05,23,04,10,11.80
2016,05,23,04,11,11.80
2016,05,23,04,12,11.80
2016,05,23,04,13,11.80
2016,05,23,04,14,11.80
2016,05,23,04,15,11.80
2016,05,23,04,16,11.80
2016,05,23,04,17,11.70
2016,05,23,04,18,11.70
2016,05,23,04,19,11.70
2016,05,23,04,20,11.70
2016,05,23,04,21,11.70
2016,05,23,04,22,11.70
2016,05,23,04,23,11.70
2016,05,23,04,24,11.70
2016,05,23,04,25,11.70
2016,05,23,04,26,11.70
2016,05,23,04,27,11.70
2016,05,23,04,28,11.70
2016,05,23,04,29,11.70
2016,05,23,04,30,11.70
2016,05,23,04,31,11.70
2016,05,23,04,32,11.70
2016,05,23,04,33,11.70
2016,05,23,04,34,11.70
2016,05,23,04,35,11.70
2016,05,23,04,36,11.70
2016,05,23,04,37,11.70
2016,05,23,04,38,11.70
2016,05,23,04,39,11.70
2016,05,23,04,40,11.70
2016,05,23,04,41,11.70
2016,05,23,04,42,11.70
2016,05,23,04,43,11.70
2016,05,23,04,44,11.70
2016,05,23,04,45,11.70
2016,05,23,04,46,11.70
2016,05,23,04,47,11.70
2016,05,23,04,48,11.70
2016,05,23,04,49,11.70
2016,05,23,04,50,11.70
2016,05,23,04,51,11.70
2016,05,23,04,52,11.70
2016,05,23,04,53,11.70
2016,05,23,04,54,11.70
2016,05,23,04,55,11.70
2016,05,23,04,56,11.70
2016,05,23,04,57,11.70
2016,05,23,04,58,11.80
2016,05,23,04,59,11.80
2016,05,23,05,00,11.80
2016,05,23,05,01,11.80
2016,05,23,05,02,11.80
2016,05,23,05,03,11.80
2016,05,23,05,04,11.80
2016,05,23,05,05,11.80
2016,05,23,05,06,11.80
2016,05,23,05,07,11.80
2016,05,23,05,08,11.80
2016,05,23,05,09,11.80
2016,05,23,05,10,11.80
2016,05,23,05,11,11.80
2016,05,23,05,12,11.80
2016,05,23,05,13,11.80
2016,05,23,05,14,11.80
2016,05,23,05,15,11.80
2016,05,23,05,16,11.80
2016,05,23,05,17,11.80
2016,05,23,05,18,11.80
2016,05,23,05,19,11.80
2016,05,23,05,20,11.80
2016,05,23,05,21,11.80
2016,05,23,05,22,11.80
2016,05,23,05,23,11.90
2016,05,23,05,24,11.90
2016,05,23,05,25,11.90
2016,05,23,05,26,11.90
2016,05,23,05,27,12.00
2016,05,23,05,28,12.00
2016,05,23,05,29,12.00
2016,05,23,05,30,12.00
2016,05,23,05,31,12.00
2016,05,23,05,32,12.10
2016,05,23,05,33,12.10
2016,05,23,05,34,12.00
2016,05,23,05,35,12.00
2016,05,23,05,36,12.00
2016,05,23,05,37,12.00
2016,05,23,05,38,12.00
2016,05,23,05,39,12.00
2016,05,23,05,40,12.10
2016,05,23,05,41,12.10
2016,05,23,05,42,12.10
2016,05,23,05,43,12.10
2016,05,23,05,44,12.10
2016,05,23,05,45,12.10
2016,05,23,05,46,12.10
2016,05,23,05,47,12.10
2016,05,23,05,48,12.10
2016,05,23,05,49,12.10
2016,05,23,05,50,12.10
2016,05,23,05,51,12.10
2016,05,23,05,52,12.20
2016,05,23,05,53,12.20
2016,05,23,05,54,12.20
2016,05,23,05,55,12.20
2016,05,23,05,56,12.20
2016,05,23,05,57,12.20
2016,05,23,05,58,12.30
2016,05,23,05,59,12.30
2016,05,23,06,00,12.30
2016,05,23,06,01,12.30
2016,05,23,06,02,12.30
2016,05,23,06,03,12.30
2016,05,23,06,04,12.30
2016,05,23,06,05,12.30
2016,05,23,06,06,12.30
2016,05,23,06,07,12.30
2016,05,23,06,08,12.30
2016,05,23,06,09,12.30
2016,05,23,06,10,12.40
2016,05,23,06,11,12.40
2016,05,23,06,12,12.40
2016,05,23,06,13,12.40
2016,05,23,06,14,12.40
2016,05,23,06,15,12.40
2016,05,23,06,16,12.40
2016,05,23,06,17,12.40
2016,05,23,06,18,12.40
2016,05,23,06,19,12.40
2016,05,23,06,20,12.50
2016,05,23,06,21,12.50
2016,05,23,06,22,12.50
2016,05,23,06,23,12.60
2016,05,23,06,24,12.60
2016,05,23,06,25,12.60
2016,05,23,06,26,12.60
2016,05,23,06,27,12.60
2016,05,23,06,28,12.60
2016,05,23,06,29,12.60
2016,05,23,06,30,12.60
2016,05,23,06,31,12.60
2016,05,23,06,32,12.70
2016,05,23,06,33,12.70
2016,05,23,06,34,12.70
2016,05,23,06,35,12.70
2016,05,23,06,36,12.70
2016,05,23,06,37,12.70
2016,05,23,06,38,12.70
2016,05,23,06,39,12.70
2016,05,23,06,40,12.80
2016,05,23,06,41,12.80
2016,05,23,06,42,12.80
2016,05,23,06,43,12.80
2016,05,23,06,44,12.80
2016,05,23,06,45,12.80
2016,05,23,06,46,12.90
2016,05,23,06,47,12.90
2016,05,23,06,48,12.90
2016,05,23,06,49,12.90
2016,05,23,06,50,12.90
2016,05,23,06,51,12.90
2016,05,23,06,52,13.00
2016,05,23,06,53,13.00
2016,05,23,06,54,13.00
2016,05,23,06,55,13.10
2016,05,23,06,56,13.10
2016,05,23,06,57,13.10
2016,05,23,06,58,13.10
2016,05,23,06,59,13.10
2016,05,23,07,00,13.10
2016,05,23,07,01,13.10
2016,05,23,07,02,13.20
2016,05,23,07,03,13.20
2016,05,23,07,04,13.20
2016,05,23,07,05,13.20
2016,05,23,07,06,13.20
2016,05,23,07,07,13.20
2016,05,23,07,08,13.30
2016,05,23,07,09,13.30
2016,05,23,07,10,13.30
2016,05,23,07,11,13.30
2016,05,23,07,12,13.30
2016,05,23,07,13,13.30
2016,05,23,07,14,13.30
2016,05,23,07,15,13.30
2016,05,23,07,16,13.30
2016,05,23,07,17,13.30
2016,05,23,07,18,13.30
2016,05,23,07,19,13.40
2016,05,23,07,20,13.40
2016,05,23,07,21,13.40
2016,05,23,07,22,13.40
2016,05,23,07,23,13.40
2016,05,23,07,24,13.40
2016,05,23,07,25,13.50
2016,05,23,07,26,13.50
2016,05,23,07,27,13.50
2016,05,23,07,28,13.50
2016,05,23,07,29,13.60
2016,05,23,07,30,13.60
2016,05,23,07,31,13.60
2016,05,23,07,32,13.60
2016,05,23,07,33,13.60
2016,05,23,07,34,13.60
2016,05,23,07,35,13.60
2016,05,23,07,36,13.60
2016,05,23,07,37,13.60
2016,05,23,07,38,13.60
2016,05,23,07,39,13.60
2016,05,23,07,40,13.60
2016,05,23,07,41,13.60
2016,05,23,07,42,13.70
2016,05,23,07,43,13.70
2016,05,23,07,44,13.70
2016,05,23,07,45,13.70
2016,05,23,07,46,13.70
2016,05,23,07,47,13.70
2016,05,23,07,48,13.70
2016,05,23,07,49,13.70
2016,05,23,07,50,13.70
2016,05,23,07,51,13.70
2016,05,23,07,52,13.80
2016,05,23,07,53,13.80
2016,05,23,07,54,13.80
2016,05,23,07,55,13.80
2016,05,23,07,56,13.80
2016,05,23,07,57,13.80
2016,05,23,07,58,13.80
2016,05,23,07,59,13.80
2016,05,23,08,00,13.90
2016,05,23,08,01,13.90
2016,05,23,08,02,13.90
2016,05,23,08,03,13.90
2016,05,23,08,04,13.90
2016,05,23,08,05,13.90
2016,05,23,08,06,13.90
2016,05,23,08,07,13.90
2016,05,23,08,08,13.90
2016,05,23,08,09,14.00
2016,05,23,08,10,14.00
2016,05,23,08,11,14.00
2016,05,23,08,12,14.00
2016,05,23,08,13,14.00
2016,05,23,08,14,14.00
2016,05,23,08,15,14.00
2016,05,23,08,16,14.00
2016,05,23,08,17,14.00
2016,05,23,08,18,14.10
2016,05,23,08,19,14.10
2016,05,23,08,20,14.10
2016,05,23,08,21,14.10
2016,05,23,08,22,14.10
2016,05,23,08,23,14.10
2016,05,23,08,24,14.10
2016,05,23,08,25,14.10
2016,05,23,08,26,14.10
2016,05,23,08,27,14.10
2016,05,23,08,28,14.10
2016,05,23,08,29,14.10
2016,05,23,08,30,14.10
2016,05,23,08,31,14.10
2016,05,23,08,32,14.10
2016,05,23,08,33,14.20
2016,05,23,08,34,14.20
2016,05,23,08,35,14.20
2016,05,23,08,36,14.20
2016,05,23,08,37,14.20
2016,05,23,08,38,14.20
2016,05,23,08,39,14.20
2016,05,23,08,40,14.20
2016,05,23,08,41,14.30
2016,05,23,08,42,14.30
2016,05,23,08,43,14.30
2016,05,23,08,44,14.30
2016,05,23,08,45,14.30
2016,05,23,08,46,14.30
2016,05,23,08,47,14.30
2016,05,23,08,48,14.30
2016,05,23,08,49,14.30
2016,05,23,08,50,14.30
2016,05,23,08,51,14.40
2016,05,23,08,52,14.40
2016,05,23,08,53,14.40
2016,05,23,08,54,14.40
2016,05,23,08,55,14.40
2016,05,23,08,56,14.40
2016,05,23,08,57,14.50
2016,05,23,08,58,14.50
2016,05,23,08,59,14.50
2016,05,23,09,00,14.50
2016,05,23,09,01,14.50
2016,05,23,09,02,14.50
2016,05,23,09,03,14.60
2016,05,23,09,04,14.60
2016,05,23,09,05,14.60
2016,05,23,09,06,14.70
2016,05,23,09,07,14.70
2016,05,23,09,08,14.70
2016,05,23,09,09,14.70
2016,05,23,09,10,14.70
2016,05,23,09,11,14.80
2016,05,23,09,12,14.80
2016,05,23,09,13,14.80
2016,05,23,09,14,14.80
2016,05,23,09,15,14.80
2016,05,23,09,16,14.80
2016,05,23,09,17,14.90
2016,05,23,09,18,14.90
2016,05,23,09,19,14.90
2016,05,23,09,20,14.90
2016,05,23,09,21,15.00
2016,05,23,09,22,15.00
2016,05,23,09,23,15.00
2016,05,23,09,24,15.10
2016,05,23,09,25,15.10
2016,05,23,09,26,15.10
2016,05,23,09,27,15.10
2016,05,23,09,28,15.10
2016,05,23,09,29,15.10
2016,05,23,09,30,15.20
2016,05,23,09,31,15.20
2016,05,23,09,32,15.20
2016,05,23,09,33,15.30
2016,05,23,09,34,15.30
2016,05,23,09,35,15.30
2016,05,23,09,36,15.30
2016,05,23,09,37,15.40
2016,05,23,09,38,15.40
2016,05,23,09,39,15.40
2016,05,23,09,40,15.50
2016,05,23,09,41,15.50
2016,05,23,09,42,15.50
2016,05,23,09,43,15.60
2016,05,23,09,44,15.60
2016,05,23,09,45,15.50
2016,05,23,09,46,15.50
2016,05,23,09,47,15.50
2016,05,23,09,48,15.60
2016,05,23,09,49,15.60
2016,05,23,09,50,15.60
2016,05,23,09,51,15.60
2016,05,23,09,52,15.60
2016,05,23,09,53,15.70
2016,05,23,09,54,15.70
2016,05,23,09,55,15.70
2016,05,23,09,56,15.70
2016,05,23,09,57,15.80
2016,05,23,09,58,15.80
2016,05,23,09,59,15.90
2016,05,23,10,00,15.90
2016,05,23,10,01,15.90
2016,05,23,10,02,15.90
2016,05,23,10,03,15.90
2016,05,23,10,04,15.90
2016,05,23,10,05,15.90
2016,05,23,10,06,15.90
2016,05,23,10,07,15.90
2016,05,23,10,08,15.80
2016,05,23,10,09,15.80
2016,05,23,10,10,15.80
2016,05,23,10,11,15.80
2016,05,23,10,12,15.80
2016,05,23,10,13,15.80
2016,05,23,10,14,15.70
2016,05,23,10,15,15.70
2016,05,23,10,16,15.70
2016,05,23,10,17,15.70
2016,05,23,10,18,15.70
2016,05,23,10,19,15.70
2016,05,23,10,20,15.70
2016,05,23,10,21,15.70
2016,05,23,10,22,15.70
2016,05,23,10,23,15.80
2016,05,23,10,24,15.80
2016,05,23,10,25,15.80
2016,05,23,10,26,15.80
2016,05,23,10,27,15.90
2016,05,23,10,28,15.90
2016,05,23,10,29,16.00
2016,05,23,10,30,16.00
2016,05,23,10,31,16.10
2016,05,23,10,32,16.10
2016,05,23,10,33,16.10
2016,05,23,10,34,16.10
2016,05,23,10,35,16.00
2016,05,23,10,36,16.00
2016,05,23,10,37,16.00
2016,05,23,10,38,16.00
2016,05,23,10,39,15.90
2016,05,23,10,40,15.90
2016,05,23,10,41,15.90
2016,05,23,10,42,15.90
2016,05,23,10,43,15.90
2016,05,23,10,44,15.90
2016,05,23,10,45,15.90
2016,05,23,10,46,15.90
2016,05,23,10,47,15.90
2016,05,23,10,48,15.90
2016,05,23,10,49,15.90
2016,05,23,10,50,15.90
2016,05,23,10,51,15.90
2016,05,23,10,52,15.90
2016,05,23,10,53,15.90
2016,05,23,10,54,15.80
2016,05,23,10,55,15.80
2016,05,23,10,56,15.70
2016,05,23,10,57,15.70
2016,05,23,10,58,15.60
2016,05,23,10,59,15.60
2016,05,23,11,00,15.60
2016,05,23,11,01,15.50
2016,05,23,11,02,15.50
2016,05,23,11,03,15.40
2016,05,23,11,04,15.40
2016,05,23,11,05,15.40
2016,05,23,11,06,15.40
2016,05,23,11,07,15.40
2016,05,23,11,08,15.40
2016,05,23,11,09,15.40
2016,05,23,11,10,15.40
2016,05,23,11,11,15.40
2016,05,23,11,12,15.40
2016,05,23,11,13,15.40
2016,05,23,11,14,15.40
2016,05,23,11,15,15.50
2016,05,23,11,16,15.50
2016,05,23,11,17,15.60
2016,05,23,11,18,15.60
2016,05,23,11,19,15.60
2016,05,23,11,20,15.60
2016,05,23,11,21,15.70
2016,05,23,11,22,15.70
2016,05,23,11,23,15.80
2016,05,23,11,24,15.80
2016,05,23,11,25,15.90
2016,05,23,11,26,15.90
2016,05,23,11,27,15.90
2016,05,23,11,28,16.00
2016,05,23,11,29,16.00
2016,05,23,11,30,16.00
2016,05,23,11,31,16.00
2016,05,23,11,32,15.90
2016,05,23,11,33,15.90
2016,05,23,11,34,15.90
2016,05,23,11,35,15.90
2016,05,23,11,36,15.90
2016,05,23,11,37,15.90
2016,05,23,11,38,15.90
2016,05,23,11,39,15.80
2016,05,23,11,40,15.80
2016,05,23,11,41,15.80
2016,05,23,11,42,15.80
2016,05,23,11,43,15.80
2016,05,23,11,44,15.70
2016,05,23,11,45,15.70
2016,05,23,11,46,15.70
2016,05,23,11,47,15.70
2016,05,23,11,48,15.70
2016,05,23,11,49,15.70
2016,05,23,11,50,15.70
2016,05,23,11,51,15.70
2016,05,23,11,52,15.80
2016,05,23,11,53,15.80
2016,05,23,11,54,15.80
2016,05,23,11,55,15.70
2016,05,23,11,56,15.70
2016,05,23,11,57,15.70
2016,05,23,11,58,15.70
2016,05,23,11,59,15.60
2016,05,23,12,00,15.60
2016,05,23,12,01,15.60
2016,05,23,12,02,15.70
2016,05,23,12,03,15.70
2016,05,23,12,04,15.70
2016,05,23,12,05,15.70
2016,05,23,12,06,15.70
2016,05,23,12,07,15.70
2016,05,23,12,08,15.70
2016,05,23,12,09,15.70
2016,05,23,12,10,15.70
2016,05,23,12,11,15.80
2016,05,23,12,12,15.90
2016,05,23,12,13,15.90
2016,05,23,12,14,16.00
2016,05,23,12,15,16.10
2016,05,23,12,16,16.10
2016,05,23,12,17,16.20
2016,05,23,12,18,16.20
2016,05,23,12,19,16.20
2016,05,23,12,20,16.30
2016,05,23,12,21,16.30
2016,05,23,12,22,16.30
2016,05,23,12,23,16.40
2016,05,23,12,24,16.50
2016,05,23,12,25,16.50
2016,05,23,12,26,16.50
2016,05,23,12,27,16.50
2016,05,23,12,28,16.50
2016,05,23,12,29,16.50
2016,05,23,12,30,16.50
2016,05,23,12,31,16.50
2016,05,23,12,32,16.40
2016,05,23,12,33,16.40
2016,05,23,12,34,16.40
2016,05,23,12,35,16.30
2016,05,23,12,36,16.30
2016,05,23,12,37,16.30
2016,05,23,12,38,16.40
2016,05,23,12,39,16.30
2016,05,23,12,40,16.30
2016,05,23,12,41,16.30
2016,05,23,12,42,16.20
2016,05,23,12,43,16.20
2016,05,23,12,44,16.30
2016,05,23,12,45,16.30
2016,05,23,12,46,16.30
2016,05,23,12,47,16.30
2016,05,23,12,48,16.30
2016,05,23,12,49,16.40
2016,05,23,12,50,16.40
2016,05,23,12,51,16.40
2016,05,23,12,52,16.30
2016,05,23,12,53,16.30
2016,05,23,12,54,16.30
2016,05,23,12,55,16.30
2016,05,23,12,56,16.30
2016,05,23,12,57,16.30
2016,05,23,12,58,16.30
2016,05,23,12,59,16.30
2016,05,23,13,00,16.30
2016,05,23,13,01,16.30
2016,05,23,13,02,16.30
2016,05,23,13,03,16.30
2016,05,23,13,04,16.30
2016,05,23,13,05,16.30
2016,05,23,13,06,16.30
2016,05,23,13,07,16.30
2016,05,23,13,08,16.30
2016,05,23,13,09,16.40
2016,05,23,13,10,16.40
2016,05,23,13,11,16.40
2016,05,23,13,12,16.40
2016,05,23,13,13,16.40
2016,05,23,13,14,16.40
2016,05,23,13,15,16.50
2016,05,23,13,16,16.50
2016,05,23,13,17,16.60
2016,05,23,13,18,16.60
2016,05,23,13,19,16.60
2016,05,23,13,20,16.60
2016,05,23,13,21,16.60
2016,05,23,13,22,16.60
2016,05,23,13,23,16.60
2016,05,23,13,24,16.60
2016,05,23,13,25,16.50
2016,05,23,13,26,16.50
2016,05,23,13,27,16.50
2016,05,23,13,28,16.50
2016,05,23,13,29,16.50
2016,05,23,13,30,16.40
2016,05,23,13,31,16.40
2016,05,23,13,32,16.40
2016,05,23,13,33,16.40
2016,05,23,13,34,16.40
2016,05,23,13,35,16.40
2016,05,23,13,36,16.40
2016,05,23,13,37,16.40
2016,05,23,13,38,16.50
2016,05,23,13,39,16.50
2016,05,23,13,40,16.60
2016,05,23,13,41,16.60
2016,05,23,13,42,16.70
2016,05,23,13,43,16.70
2016,05,23,13,44,16.70
2016,05,23,13,45,16.80
2016,05,23,13,46,16.80
2016,05,23,13,47,16.80
2016,05,23,13,48,16.80
2016,05,23,13,49,16.70
2016,05,23,13,50,16.60
2016,05,23,13,51,16.50
2016,05,23,13,52,16.40
2016,05,23,13,53,16.20
2016,05,23,13,54,16.10
2016,05,23,13,55,16.00
2016,05,23,13,56,16.00
2016,05,23,13,57,15.90
2016,05,23,13,58,15.80
2016,05,23,13,59,15.80
2016,05,23,14,00,15.80
2016,05,23,14,01,15.70
2016,05,23,14,02,15.70
2016,05,23,14,03,15.70
2016,05,23,14,04,15.70
2016,05,23,14,05,15.70
2016,05,23,14,06,15.70
2016,05,23,14,07,15.80
2016,05,23,14,08,15.80
2016,05,23,14,09,15.80
2016,05,23,14,10,15.90
2016,05,23,14,11,15.90
2016,05,23,14,12,15.90
2016,05,23,14,13,16.00
2016,05,23,14,14,16.00
2016,05,23,14,15,16.00
2016,05,23,14,16,16.10
2016,05,23,14,17,16.10
2016,05,23,14,18,16.10
2016,05,23,14,19,16.10
2016,05,23,14,20,16.10
2016,05,23,14,21,16.00
2016,05,23,14,22,16.00
2016,05,23,14,23,16.00
2016,05,23,14,24,15.90
2016,05,23,14,25,15.90
2016,05,23,14,26,16.00
2016,05,23,14,27,16.00
2016,05,23,14,28,16.00
2016,05,23,14,29,16.00
2016,05,23,14,30,16.00
2016,05,23,14,31,16.00
2016,05,23,14,32,16.00
2016,05,23,14,33,16.10
2016,05,23,14,34,16.10
2016,05,23,14,35,16.10
2016,05,23,14,36,16.20
2016,05,23,14,37,16.20
2016,05,23,14,38,16.30
2016,05,23,14,39,16.30
2016,05,23,14,40,16.40
2016,05,23,14,41,16.40
2016,05,23,14,42,16.50
2016,05,23,14,43,16.50
2016,05,23,14,44,16.60
2016,05,23,14,45,16.70
2016,05,23,14,46,16.70
2016,05,23,14,47,16.80
2016,05,23,14,48,16.80
2016,05,23,14,49,16.90
2016,05,23,14,50,16.90
2016,05,23,14,51,16.90
2016,05,23,14,52,16.90
2016,05,23,14,53,17.00
2016,05,23,14,54,17.00
2016,05,23,14,55,17.00
2016,05,23,14,56,17.00
2016,05,23,14,57,17.00
2016,05,23,14,58,16.90
2016,05,23,14,59,16.90
2016,05,23,15,00,16.90
2016,05,23,15,01,16.80
2016,05,23,15,02,16.80
2016,05,23,15,03,16.80
2016,05,23,15,04,16.80
2016,05,23,15,05,16.80
2016,05,23,15,06,16.80
2016,05,23,15,07,16.80
2016,05,23,15,08,16.80
2016,05,23,15,09,16.80
2016,05,23,15,10,16.80
2016,05,23,15,11,16.80
2016,05,23,15,12,16.90
2016,05,23,15,13,16.90
2016,05,23,15,14,16.90
2016,05,23,15,15,16.90
2016,05,23,15,16,17.00
2016,05,23,15,17,16.90
2016,05,23,15,18,16.90
2016,05,23,15,19,16.90
2016,05,23,15,20,16.80
2016,05,23,15,21,16.70
2016,05,23,15,22,16.70
2016,05,23,15,23,16.70
2016,05,23,15,24,16.60
2016,05,23,15,25,16.60
2016,05,23,15,26,16.50
2016,05,23,15,27,16.50
2016,05,23,15,28,16.40
2016,05,23,15,29,16.40
2016,05,23,15,30,16.30
2016,05,23,15,31,16.30
2016,05,23,15,32,16.30
2016,05,23,15,33,16.30
2016,05,23,15,34,16.30
2016,05,23,15,35,16.20
2016,05,23,15,36,16.20
2016,05,23,15,37,16.20
2016,05,23,15,38,16.30
2016,05,23,15,39,16.30
2016,05,23,15,40,16.40
2016,05,23,15,41,16.40
2016,05,23,15,42,16.40
2016,05,23,15,43,16.40
2016,05,23,15,44,16.40
2016,05,23,15,45,16.50
2016,05,23,15,46,16.50
2016,05,23,15,47,16.50
2016,05,23,15,48,16.50
2016,05,23,15,49,16.50
2016,05,23,15,50,16.50
2016,05,23,15,51,16.60
2016,05,23,15,52,16.60
2016,05,23,15,53,16.60
2016,05,23,15,54,16.60
2016,05,23,15,55,16.60
2016,05,23,15,56,16.70
2016,05,23,15,57,16.70
2016,05,23,15,58,16.70
2016,05,23,15,59,16.70
2016,05,23,16,00,16.70
2016,05,23,16,01,16.70
2016,05,23,16,02,16.70
2016,05,23,16,03,16.70
2016,05,23,16,04,16.70
2016,05,23,16,05,16.80
2016,05,23,16,06,16.80
2016,05,23,16,07,16.80
2016,05,23,16,08,16.90
2016,05,23,16,09,16.90
2016,05,23,16,10,17.00
2016,05,23,16,11,17.00
2016,05,23,16,12,17.10
2016,05,23,16,13,17.10
2016,05,23,16,14,17.10
2016,05,23,16,15,17.10
2016,05,23,16,16,17.20
2016,05,23,16,17,17.20
2016,05,23,16,18,17.20
2016,05,23,16,19,17.30
2016,05,23,16,20,17.30
2016,05,23,16,21,17.30
2016,05,23,16,22,17.30
2016,05,23,16,23,17.30
2016,05,23,16,24,17.30
2016,05,23,16,25,17.30
2016,05,23,16,26,17.30
2016,05,23,16,27,17.30
2016,05,23,16,28,17.30
2016,05,23,16,29,17.30
2016,05,23,16,30,17.30
2016,05,23,16,31,17.20
2016,05,23,16,32,17.20
2016,05,23,16,33,17.20
2016,05,23,16,34,17.10
2016,05,23,16,35,17.10
2016,05,23,16,36,17.10
2016,05,23,16,37,17.10
2016,05,23,16,38,17.00
2016,05,23,16,39,17.00
2016,05,23,16,40,17.00
2016,05,23,16,41,17.00
2016,05,23,16,42,17.00
2016,05,23,16,43,17.00
2016,05,23,16,44,17.00
2016,05,23,16,45,17.00
2016,05,23,16,46,17.00
2016,05,23,16,47,17.10
2016,05,23,16,48,17.10
2016,05,23,16,49,17.10
2016,05,23,16,50,17.10
2016,05,23,16,51,17.10
2016,05,23,16,52,17.10
2016,05,23,16,53,17.10
2016,05,23,16,54,17.20
2016,05,23,16,55,17.10
2016,05,23,16,56,17.10
2016,05,23,16,57,17.10
2016,05,23,16,58,17.10
2016,05,23,16,59,17.10
2016,05,23,17,00,17.10
2016,05,23,17,01,17.10
2016,05,23,17,02,17.10
2016,05,23,17,03,17.10
2016,05,23,17,04,17.10
2016,05,23,17,05,17.10
2016,05,23,17,06,17.10
2016,05,23,17,07,17.10
2016,05,23,17,08,17.20
2016,05,23,17,09,17.20
2016,05,23,17,10,17.20
2016,05,23,17,11,17.20
2016,05,23,17,12,17.20
2016,05,23,17,13,17.20
2016,05,23,17,14,17.20
2016,05,23,17,15,17.10
2016,05,23,17,16,17.10
2016,05,23,17,17,17.10
2016,05,23,17,18,17.10
2016,05,23,17,19,17.10